When you browse on this site, cookies collect data to enhance your experience and personalize the content and advertising you see.
Visit our Privacy Policy to learn more. By continuing to use the site, you agree to this use of cookies and data.
  • In Czech Republic
  • List of Countries
  • For 7 days
  • Water Temperature
  • Weather Map
  • Weather Widgets
  • user-avatar
    Login

    Hourly Weather Mokrus

    Today, 27 May, Wednesday

    Time Temperature Precipitation Wind Pressure Humidity
    00:00 +7°C° 0 mm 3 mps 737 mmHg 95%
    01:00 +7°C° 0 mm 3 mps 737 mmHg 95%
    02:00 +7°C° 0 mm 2 mps 737 mmHg 96%
    03:00 +7°C° 0 mm 2 mps 737 mmHg 96%
    04:00 +6°C° 0 mm 2 mps 737 mmHg 97%
    05:00 +8°C° 0 mm 3 mps 737 mmHg 94%
    06:00 +9°C° 0 mm 3 mps 737 mmHg 90%
    07:00 +11°C° 0 mm 3 mps 737 mmHg 87%
    08:00 +12°C° 0 mm 4 mps 737 mmHg 80%
    09:00 +13°C° 0 mm 4 mps 737 mmHg 73%
    10:00 +15°C° 0 mm 5 mps 737 mmHg 66%
    11:00 +15°C° 0.1 mm 5 mps 737 mmHg 64%
    12:00 +16°C° 0.1 mm 5 mps 736 mmHg 62%
    13:00 +17°C° 0.1 mm 6 mps 736 mmHg 60%
    14:00 +16°C° 0.2 mm 6 mps 736 mmHg 61%
    15:00 +16°C° 0.2 mm 6 mps 735 mmHg 63%
    16:00 +16°C° 0.2 mm 6 mps 735 mmHg 64%
    17:00 +15°C° 0.1 mm 5 mps 735 mmHg 69%
    18:00 +13°C° 0.1 mm 4 mps 735 mmHg 74%
    19:00 +12°C° 0.1 mm 3 mps 735 mmHg 79%
    20:00 +12°C° 0 mm 2 mps 735 mmHg 80%
    21:00 +10°C° 0 mm 2 mps 734 mmHg 82%
    22:00 +10°C° 0 mm 1 mps 734 mmHg 84%
    23:00 +9°C° 0 mm 1 mps 734 mmHg 84%

    Tomorrow, 28 May, Thursday

    Time Temperature Precipitation Wind Pressure Humidity
    00:00 +9°C° 0 mm 1 mps 734 mmHg 85%
    01:00 +9°C° 0 mm 1 mps 734 mmHg 85%
    02:00 +8°C° 0 mm 1 mps 733 mmHg 86%
    03:00 +8°C° 0 mm 1 mps 733 mmHg 87%
    04:00 +8°C° 0 mm 1 mps 733 mmHg 87%
    05:00 +9°C° 0 mm 2 mps 733 mmHg 85%
    06:00 +10°C° 0 mm 3 mps 733 mmHg 82%
    07:00 +11°C° 0 mm 3 mps 733 mmHg 80%
    08:00 +12°C° 0.4 mm 3 mps 733 mmHg 80%
    09:00 +12°C° 0.4 mm 4 mps 733 mmHg 80%
    10:00 +12°C° 0.4 mm 4 mps 732 mmHg 80%
    11:00 +11°C° 0.5 mm 4 mps 732 mmHg 83%
    12:00 +11°C° 0.5 mm 4 mps 732 mmHg 85%
    13:00 +9°C° 0.5 mm 5 mps 731 mmHg 88%
    14:00 +11°C° 0.1 mm 4 mps 731 mmHg 83%
    15:00 +11°C° 0.1 mm 4 mps 731 mmHg 79%
    16:00 +12°C° 0.1 mm 4 mps 731 mmHg 74%
    17:00 +12°C° 0.1 mm 3 mps 731 mmHg 77%
    18:00 +12°C° 0.1 mm 2 mps 731 mmHg 80%
    19:00 +12°C° 0.1 mm 1 mps 731 mmHg 82%
    20:00 +10°C° 0 mm 2 mps 731 mmHg 85%
    21:00 +9°C° 0 mm 2 mps 731 mmHg 87%
    22:00 +8°C° 0 mm 2 mps 731 mmHg 90%
    23:00 +7°C° 0 mm 3 mps 730 mmHg 92%

    Day after tomorrow, 29 May, Friday

    Time Temperature Precipitation Wind Pressure Humidity
    00:00 +7°C° 0 mm 3 mps 730 mmHg 95%
    01:00 +7°C° 0 mm 3 mps 730 mmHg 97%
    02:00 +7°C° 0 mm 3 mps 730 mmHg 97%
    03:00 +6°C° 0 mm 4 mps 730 mmHg 96%
    04:00 +6°C° 0 mm 4 mps 730 mmHg 96%
    05:00 +6°C° 0 mm 4 mps 730 mmHg 96%
    06:00 +7°C° 0 mm 4 mps 730 mmHg 95%
    07:00 +7°C° 0 mm 4 mps 730 mmHg 94%
    08:00 +8°C° 0 mm 4 mps 730 mmHg 90%
    09:00 +10°C° 0 mm 4 mps 730 mmHg 85%
    10:00 +10°C° 0 mm 5 mps 730 mmHg 81%
    11:00 +12°C° 0.2 mm 5 mps 730 mmHg 76%
    12:00 +13°C° 0.2 mm 6 mps 730 mmHg 71%
    13:00 +15°C° 0.2 mm 6 mps 730 mmHg 67%
    14:00 +14°C° 0.4 mm 6 mps 729 mmHg 69%
    15:00 +14°C° 0.4 mm 7 mps 729 mmHg 70%
    16:00 +12°C° 0.4 mm 7 mps 729 mmHg 72%
    17:00 +11°C° 0.1 mm 6 mps 729 mmHg 73%
    18:00 +10°C° 0.1 mm 5 mps 729 mmHg 74%
    19:00 +9°C° 0.1 mm 5 mps 729 mmHg 75%
    20:00 +8°C° 0 mm 4 mps 729 mmHg 78%
    21:00 +7°C° 0 mm 4 mps 729 mmHg 81%
    22:00 +6°C° 0 mm 4 mps 729 mmHg 84%
    23:00 +5°C° 0 mm 4 mps 729 mmHg 85%

    30 May, Saturday

    Time Temperature Precipitation Wind Pressure Humidity
    00:00 +5°C° 0 mm 4 mps 729 mmHg 87%
    01:00 +5°C° 0 mm 4 mps 729 mmHg 88%
    02:00 +5°C° 0 mm 4 mps 729 mmHg 86%
    03:00 +4°C° 0 mm 4 mps 728 mmHg 85%
    04:00 +4°C° 0 mm 4 mps 728 mmHg 83%
    05:00 +5°C° 0 mm 5 mps 728 mmHg 81%
    06:00 +5°C° 0 mm 5 mps 728 mmHg 79%
    07:00 +6°C° 0 mm 5 mps 728 mmHg 78%
    08:00 +7°C° 0 mm 5 mps 728 mmHg 74%
    09:00 +9°C° 0 mm 6 mps 728 mmHg 70%
    10:00 +10°C° 0 mm 6 mps 728 mmHg 67%
    11:00 +9°C° 0.4 mm 5 mps 727 mmHg 74%
    12:00 +8°C° 0.4 mm 5 mps 727 mmHg 81%
    13:00 +7°C° 0.4 mm 5 mps 727 mmHg 88%
    14:00 +7°C° 0.3 mm 5 mps 726 mmHg 90%
    15:00 +7°C° 0.3 mm 5 mps 726 mmHg 91%
    16:00 +7°C° 0.3 mm 5 mps 726 mmHg 93%
    17:00 +7°C° 0.3 mm 5 mps 726 mmHg 94%
    18:00 +7°C° 0.3 mm 5 mps 726 mmHg 94%
    19:00 +7°C° 0.3 mm 4 mps 726 mmHg 95%
    20:00 +7°C° 0.1 mm 4 mps 726 mmHg 95%
    21:00 +7°C° 0.1 mm 4 mps 726 mmHg 96%
    22:00 +6°C° 0.1 mm 4 mps 726 mmHg 96%
    23:00 +6°C° 0.2 mm 4 mps 726 mmHg 96%

    31 May, Sunday

    Time Temperature Precipitation Wind Pressure Humidity
    00:00 +6°C° 0.2 mm 4 mps 725 mmHg 96%
    01:00 +6°C° 0.2 mm 4 mps 725 mmHg 96%
    02:00 +6°C° 0.4 mm 5 mps 725 mmHg 96%
    03:00 +6°C° 0.4 mm 5 mps 725 mmHg 96%
    04:00 +6°C° 0.4 mm 5 mps 725 mmHg 96%
    05:00 +7°C° 0.2 mm 5 mps 725 mmHg 96%
    06:00 +7°C° 0.2 mm 5 mps 725 mmHg 96%
    07:00 +7°C° 0.2 mm 5 mps 725 mmHg 96%
    08:00 +7°C° 0.1 mm 5 mps 725 mmHg 96%
    09:00 +8°C° 0.1 mm 5 mps 725 mmHg 95%
    10:00 +8°C° 0.1 mm 5 mps 725 mmHg 95%
    11:00 +8°C° 0.5 mm 5 mps 725 mmHg 95%
    12:00 +8°C° 0.5 mm 4 mps 725 mmHg 96%
    13:00 +10°C° 0.5 mm 4 mps 725 mmHg 96%
    14:00 +10°C° 0.6 mm 4 mps 725 mmHg 96%
    15:00 +9°C° 0.6 mm 5 mps 725 mmHg 96%
    16:00 +9°C° 0.6 mm 5 mps 725 mmHg 96%
    17:00 +10°C° 0.4 mm 5 mps 725 mmHg 96%
    18:00 +10°C° 0.4 mm 5 mps 725 mmHg 96%
    19:00 +10°C° 0.4 mm 5 mps 725 mmHg 96%
    20:00 +10°C° 0.6 mm 5 mps 725 mmHg 97%
    21:00 +10°C° 0.6 mm 5 mps 725 mmHg 97%
    22:00 +10°C° 0.6 mm 5 mps 725 mmHg 98%
    23:00 +12°C° 0.5 mm 5 mps 725 mmHg 98%

    1 June, Monday

    Time Temperature Precipitation Wind Pressure Humidity
    00:00 +12°C° 0.5 mm 4 mps 725 mmHg 98%
    01:00 +12°C° 0.5 mm 4 mps 726 mmHg 98%
    02:00 +12°C° 0.3 mm 4 mps 726 mmHg 98%
    03:00 +12°C° 0.3 mm 3 mps 726 mmHg 98%
    04:00 +12°C° 0.3 mm 3 mps 726 mmHg 98%
    05:00 +12°C° 0 mm 3 mps 726 mmHg 97%
    06:00 +13°C° 0 mm 4 mps 726 mmHg 95%
    07:00 +13°C° 0 mm 4 mps 727 mmHg 94%
    08:00 +14°C° 0 mm 4 mps 727 mmHg 90%
    09:00 +15°C° 0 mm 4 mps 727 mmHg 86%
    10:00 +17°C° 0 mm 4 mps 727 mmHg 83%
    11:00 +17°C° 0.1 mm 5 mps 727 mmHg 75%
    12:00 +19°C° 0.1 mm 5 mps 728 mmHg 68%
    13:00 +20°C° 0.1 mm 6 mps 728 mmHg 60%
    14:00 +20°C° 0.1 mm 6 mps 728 mmHg 61%
    15:00 +19°C° 0.1 mm 6 mps 728 mmHg 62%
    16:00 +19°C° 0.1 mm 6 mps 728 mmHg 63%
    17:00 +17°C° 0 mm 5 mps 728 mmHg 68%
    18:00 +15°C° 0 mm 4 mps 728 mmHg 72%
    19:00 +14°C° 0 mm 4 mps 728 mmHg 77%
    20:00 +13°C° 0 mm 4 mps 728 mmHg 81%
    21:00 +12°C° 0 mm 4 mps 728 mmHg 86%
    22:00 +10°C° 0 mm 3 mps 729 mmHg 90%
    23:00 +10°C° 0 mm 3 mps 729 mmHg 91%
    Show more